QPF
0.06 0.06 0.06 0.05 0.05 0.07 0.08 0.10 0.11 0.09 0.05 0.04 0.02 0.01 0.02 0.02 0.03 0.03 0.03 0.03 0.03 0.03 0.03 0.05 0.04 0.03 0.02 0.02 0.02 0.02 0.03 0.04 0.05 0.05 0.07 0.10 0.13 0.18
0.04 0.04 0.06 0.06 0.06 0.06 0.06 0.06 0.08 0.08 0.06 0.04 0.03 0.02 0.02 0.01 0.02 0.02 0.02 0.02 0.03 0.02 0.02 0.03 0.04 0.04 0.03 0.02 0.02 0.02 0.02 0.03 0.04 0.05 0.07 0.08 0.11 0.12
0.04 0.05 0.07 0.07 0.06 0.06 0.06 0.05 0.06 0.07 0.06 0.04 0.04 0.03 0.03 0.03 0.04 0.04 0.03 0.03 0.03 0.04 0.03 0.03 0.03 0.04 0.03 0.02 0.02 0.02 0.02 0.02 0.02 0.04 0.07 0.07 0.07 0.07
0.05 0.05 0.06 0.07 0.07 0.06 0.07 0.06 0.06 0.07 0.07 0.05 0.04 0.04 0.04 0.03 0.04 0.05 0.02 0.02 0.02 0.03 0.03 0.02 0.02 0.02 0.03 0.03 0.02 0.01 0.01 0.01 0.02 0.06 0.09 0.06 0.05 0.06
0.04 0.05 0.05 0.06 0.06 0.06 0.06 0.06 0.06 0.07 0.07 0.05 0.04 0.04 0.03 0.02 0.03 0.04 0.03 0.03 0.02 0.01 0.01 0.01 0.01 0.01 0.02 0.02 0.02 0.01 0.01 0.01 0.02 0.03 0.05 0.06 0.05 0.05
0.02 0.04 0.04 0.05 0.06 0.06 0.06 0.06 0.07 0.06 0.06 0.05 0.04 0.03 0.02 0.02 0.03 0.04 0.04 0.04 0.03 0.02 0.02 0.01 0.01 0.01 0.01 0.01 0.02 0.02 0.01 0.01 0.02 0.02 0.02 0.03 0.04 0.04
0.02 0.03 0.03 0.03 0.05 0.06 0.05 0.05 0.06 0.06 0.05 0.05 0.04 0.03 0.02 0.03 0.03 0.03 0.03 0.03 0.03 0.03 0.03 0.02 0.02 0.01 0.01 0.01 0.01 0.01 0.01 0.01 0.02 0.03 0.03 0.03 0.03 0.03
0.04 0.04 0.03 0.03 0.04 0.05 0.05 0.05 0.06 0.06 0.05 0.05 0.04 0.03 0.03 0.04 0.04 0.04 0.03 0.04 0.03 0.03 0.03 0.04 0.02 0.02 0.02 0.02 0.01 0.01 0.01 0.02 0.02 0.02 0.03 0.03 0.03 0.03
0.05 0.05 0.04 0.03 0.05 0.05 0.06 0.06 0.06 0.07 0.06 0.06 0.04 0.04 0.04 0.05 0.05 0.04 0.04 0.04 0.04 0.03 0.04 0.04 0.03 0.02 0.03 0.02 0.02 0.02 0.01 0.01 0.02 0.02 0.02 0.02 0.03 0.03
0.04 0.05 0.04 0.03 0.04 0.05 0.06 0.06 0.06 0.06 0.07 0.06 0.04 0.03 0.04 0.05 0.06 0.05 0.05 0.05 0.05 0.04 0.04 0.04 0.03 0.02 0.02 0.02 0.02 0.02 0.02 0.02 0.01 0.01 0.01 0.02 0.03 0.03
0.03 0.04 0.04 0.04 0.05 0.06 0.05 0.05 0.04 0.04 0.05 0.05 0.05 0.05 0.04 0.04 0.05 0.05 0.06 0.06 0.05 0.04 0.03 0.04 0.03 0.02 0.02 0.01 0.01 0.01 0.01 0.01 0.02 0.02 0.02 0.02 0.02 0.02
0.05 0.05 0.06 0.06 0.06 0.05 0.04 0.04 0.03 0.03 0.04 0.04 0.05 0.05 0.05 0.05 0.06 0.05 0.05 0.05 0.04 0.03 0.02 0.03 0.03 0.02 0.02 0.01 0.01 0.01 0.00 0.01 0.01 0.01 0.01 0.02 0.02 0.01
0.07 0.07 0.07 0.07 0.05 0.03 0.02 0.02 0.03 0.04 0.05 0.04 0.04 0.04 0.04 0.05 0.04 0.04 0.04 0.04 0.04 0.04 0.03 0.04 0.03 0.03 0.02 0.01 0.01 0.01 0.01 0.01 0.01 0.00 0.00 0.01 0.01 0.01
0.06 0.06 0.05 0.05 0.05 0.04 0.03 0.02 0.03 0.04 0.03 0.03 0.03 0.03 0.04 0.04 0.05 0.04 0.04 0.04 0.06 0.06 0.06 0.06 0.06 0.05 0.04 0.02 0.01 0.01 0.01 0.01 0.01 0.01 0.00 0.00 0.00 0.00
0.04 0.04 0.03 0.03 0.03 0.03 0.04 0.04 0.03 0.03 0.03 0.03 0.03 0.04 0.05 0.06 0.06 0.06 0.05 0.05 0.07 0.08 0.08 0.08 0.09 0.08 0.06 0.04 0.02 0.01 0.01 0.01 0.02 0.02 0.01 0.01 0.01 0.01
0.04 0.03 0.02 0.02 0.02 0.02 0.02 0.03 0.03 0.03 0.04 0.04 0.05 0.06 0.06 0.07 0.08 0.08 0.08 0.08 0.07 0.07 0.07 0.08 0.09 0.10 0.10 0.08 0.06 0.04 0.02 0.02 0.02 0.03 0.02 0.01 0.01 0.01
0.02 0.02 0.01 0.01 0.01 0.01 0.01 0.01 0.02 0.03 0.04 0.05 0.05 0.07 0.08 0.08 0.08 0.08 0.08 0.09 0.09 0.10 0.09 0.08 0.09 0.10 0.10 0.09 0.07 0.05 0.03 0.03 0.03 0.03 0.03 0.03 0.03 0.03
0.02 0.02 0.01 0.01 0.01 0.00 0.01 0.01 0.02 0.02 0.04 0.05 0.06 0.07 0.07 0.08 0.09 0.09 0.09 0.10 0.10 0.10 0.10 0.09 0.09 0.09 0.09 0.08 0.06 0.05 0.04 0.04 0.04 0.04 0.04 0.04 0.04 0.04
0.01 0.01 0.01 0.01 0.00 0.00 0.00 0.01 0.02 0.02 0.04 0.05 0.06 0.06 0.06 0.06 0.07 0.08 0.11 0.11 0.10 0.10 0.10 0.10 0.11 0.11 0.11 0.10 0.08 0.08 0.07 0.06 0.05 0.04 0.04 0.03 0.03 0.04
0.01 0.01 0.00 0.00 0.00 0.01 0.01 0.01 0.02 0.03 0.05 0.05 0.05 0.06 0.05 0.04 0.05 0.05 0.06 0.07 0.07 0.06 0.06 0.07 0.07 0.06 0.06 0.06 0.07 0.07 0.06 0.05 0.05 0.05 0.05 0.04 0.04 0.03
0.00 0.00 0.00 0.00 0.01 0.01 0.01 0.02 0.02 0.04 0.07 0.07 0.06 0.06 0.05 0.04 0.04 0.04 0.05 0.05 0.05 0.04 0.04 0.04 0.06 0.06 0.05 0.04 0.05 0.04 0.03 0.03 0.04 0.04 0.03 0.03 0.03 0.03
0.00 0.00 0.00 0.00 0.01 0.01 0.01 0.02 0.02 0.02 0.04 0.07 0.06 0.07 0.06 0.04 0.04 0.04 0.03 0.03 0.03 0.03 0.03 0.03 0.03 0.05 0.06 0.06 0.06 0.06 0.05 0.04 0.05 0.05 0.04 0.03 0.03 0.02
0.01 0.02 0.02 0.02 0.01 0.01 0.01 0.01 0.02 0.02 0.02 0.04 0.06 0.07 0.07 0.05 0.04 0.03 0.03 0.03 0.03 0.03 0.03 0.04 0.04 0.04 0.05 0.06 0.06 0.05 0.05 0.05 0.06 0.07 0.06 0.05 0.04 0.03
MSLP
1015.21 1015.44 1015.72 1016.05 1016.37 1016.65 1016.83 1016.89 1016.82 1016.62 1016.32 1015.97 1015.62 1015.32 1015.12 1015.05 1015.11 1015.30 1015.57 1015.91 1016.25 1016.57 1016.83 1017.02 1017.15 1017.22 1017.27 1017.32 1017.40 1017.52 1017.69 1017.90 1018.14 1018.37 1018.57 1018.71 1018.78 1018.77
1014.47 1014.67 1014.94 1015.25 1015.60 1015.93 1016.19 1016.34 1016.38 1016.28 1016.07 1015.78 1015.46 1015.17 1014.94 1014.82 1014.81 1014.93 1015.14 1015.42 1015.74 1016.04 1016.31 1016.53 1016.70 1016.82 1016.92 1017.02 1017.15 1017.31 1017.51 1017.75 1018.00 1018.25 1018.45 1018.60 1018.67 1018.65
1013.77 1013.96 1014.22 1014.54 1014.89 1015.24 1015.55 1015.78 1015.88 1015.86 1015.73 1015.50 1015.22 1014.93 1014.70 1014.54 1014.49 1014.56 1014.72 1014.96 1015.25 1015.55 1015.82 1016.07 1016.27 1016.43 1016.58 1016.73 1016.90 1017.10 1017.33 1017.58 1017.85 1018.10 1018.31 1018.46 1018.53 1018.51
1013.14 1013.34 1013.60 1013.91 1014.27 1014.63 1014.95 1015.20 1015.36 1015.39 1015.30 1015.12 1014.88 1014.62 1014.40 1014.24 1014.18 1014.22 1014.36 1014.58 1014.85 1015.14 1015.43 1015.68 1015.91 1016.11 1016.29 1016.47 1016.67 1016.89 1017.14 1017.41 1017.68 1017.94 1018.15 1018.30 1018.38 1018.37
1012.55 1012.77 1013.04 1013.35 1013.69 1014.04 1014.36 1014.61 1014.78 1014.83 1014.79 1014.65 1014.45 1014.24 1014.06 1013.93 1013.89 1013.94 1014.09 1014.31 1014.58 1014.87 1015.16 1015.42 1015.65 1015.86 1016.05 1016.24 1016.45 1016.68 1016.94 1017.22 1017.50 1017.76 1017.99 1018.15 1018.23 1018.24
1011.95 1012.20 1012.48 1012.78 1013.11 1013.43 1013.72 1013.96 1014.12 1014.19 1014.17 1014.08 1013.95 1013.80 1013.68 1013.62 1013.64 1013.74 1013.92 1014.16 1014.44 1014.74 1015.01 1015.27 1015.49 1015.68 1015.86 1016.04 1016.24 1016.47 1016.73 1017.01 1017.30 1017.57 1017.81 1017.98 1018.09 1018.12
1011.29 1011.56 1011.84 1012.13 1012.43 1012.72 1012.98 1013.20 1013.35 1013.43 1013.45 1013.42 1013.36 1013.31 1013.29 1013.32 1013.43 1013.60 1013.84 1014.12 1014.42 1014.71 1014.97 1015.19 1015.38 1015.54 1015.68 1015.83 1016.01 1016.22 1016.48 1016.76 1017.06 1017.35 1017.60 1017.80 1017.94 1017.99
1010.52 1010.80 1011.08 1011.36 1011.63 1011.89 1012.13 1012.33 1012.48 1012.59 1012.66 1012.70 1012.74 1012.80 1012.90 1013.05 1013.26 1013.53 1013.83 1014.15 1014.46 1014.74 1014.97 1015.15 1015.29 1015.39 1015.49 1015.60 1015.74 1015.93 1016.18 1016.46 1016.77 1017.08 1017.36 1017.58 1017.73 1017.81
1009.65 1009.93 1010.20 1010.47 1010.73 1010.98 1011.20 1011.40 1011.57 1011.72 1011.86 1011.99 1012.14 1012.32 1012.54 1012.81 1013.13 1013.48 1013.85 1014.20 1014.51 1014.77 1014.97 1015.10 1015.17 1015.21 1015.25 1015.31 1015.42 1015.59 1015.83 1016.11 1016.43 1016.75 1017.04 1017.28 1017.45 1017.54
1008.74 1009.01 1009.28 1009.55 1009.81 1010.06 1010.29 1010.51 1010.72 1010.93 1011.13 1011.36 1011.61 1011.91 1012.25 1012.62 1013.03 1013.45 1013.86 1014.22 1014.53 1014.76 1014.90 1014.97 1014.98 1014.96 1014.95 1014.97 1015.05 1015.20 1015.42 1015.70 1016.02 1016.35 1016.65 1016.89 1017.06 1017.15
1007.88 1008.16 1008.44 1008.72 1009.00 1009.27 1009.53 1009.79 1010.04 1010.30 1010.58 1010.89 1011.24 1011.62 1012.04 1012.49 1012.96 1013.41 1013.83 1014.18 1014.46 1014.64 1014.73 1014.75 1014.71 1014.64 1014.58 1014.57 1014.62 1014.75 1014.97 1015.24 1015.55 1015.87 1016.16 1016.39 1016.55 1016.62
1007.20 1007.50 1007.81 1008.12 1008.42 1008.72 1009.02 1009.31 1009.61 1009.92 1010.26 1010.63 1011.03 1011.46 1011.93 1012.40 1012.88 1013.33 1013.72 1014.04 1014.27 1014.41 1014.45 1014.41 1014.33 1014.23 1014.15 1014.12 1014.15 1014.27 1014.47 1014.73 1015.02 1015.32 1015.58 1015.79 1015.92 1015.98
1006.76 1007.10 1007.45 1007.79 1008.13 1008.47 1008.80 1009.12 1009.46 1009.80 1010.16 1010.55 1010.97 1011.41 1011.86 1012.32 1012.76 1013.16 1013.50 1013.77 1013.94 1014.03 1014.03 1013.96 1013.86 1013.75 1013.66 1013.62 1013.66 1013.77 1013.95 1014.18 1014.45 1014.71 1014.94 1015.11 1015.22 1015.26
1006.59 1006.98 1007.37 1007.75 1008.12 1008.48 1008.83 1009.18 1009.52 1009.86 1010.22 1010.59 1010.98 1011.38 1011.78 1012.18 1012.55 1012.88 1013.15 1013.35 1013.47 1013.51 1013.48 1013.40 1013.30 1013.20 1013.12 1013.10 1013.13 1013.24 1013.41 1013.61 1013.84 1014.06 1014.26 1014.40 1014.49 1014.52
1006.65 1007.08 1007.50 1007.91 1008.30 1008.66 1009.01 1009.35 1009.68 1010.00 1010.32 1010.64 1010.97 1011.30 1011.62 1011.93 1012.21 1012.45 1012.64 1012.78 1012.85 1012.86 1012.83 1012.76 1012.68 1012.61 1012.56 1012.56 1012.61 1012.71 1012.87 1013.05 1013.24 1013.42 1013.58 1013.70 1013.78 1013.82
1006.84 1007.29 1007.72 1008.13 1008.51 1008.86 1009.19 1009.50 1009.79 1010.07 1010.33 1010.59 1010.84 1011.09 1011.32 1011.53 1011.72 1011.88 1012.01 1012.09 1012.13 1012.14 1012.11 1012.07 1012.03 1012.00 1012.00 1012.03 1012.10 1012.21 1012.35 1012.50 1012.67 1012.82 1012.95 1013.06 1013.15 1013.22
1007.05 1007.48 1007.89 1008.27 1008.62 1008.94 1009.23 1009.49 1009.74 1009.96 1010.17 1010.36 1010.54 1010.71 1010.87 1011.00 1011.12 1011.21 1011.29 1011.34 1011.37 1011.39 1011.39 1011.40 1011.40 1011.43 1011.47 1011.54 1011.63 1011.75 1011.88 1012.02 1012.16 1012.30 1012.42 1012.54 1012.64 1012.76
1007.19 1007.57 1007.92 1008.25 1008.54 1008.81 1009.05 1009.27 1009.47 1009.65 1009.81 1009.95 1010.09 1010.20 1010.30 1010.39 1010.46 1010.52 1010.57 1010.61 1010.65 1010.69 1010.74 1010.79 1010.85 1010.92 1011.01 1011.11 1011.23 1011.36 1011.49 1011.62 1011.75 1011.88 1012.01 1012.14 1012.29 1012.45
1007.23 1007.53 1007.80 1008.05 1008.27 1008.48 1008.68 1008.85 1009.02 1009.18 1009.32 1009.44 1009.55 1009.64 1009.72 1009.79 1009.85 1009.90 1009.95 1010.00 1010.06 1010.13 1010.21 1010.30 1010.41 1010.52 1010.65 1010.78 1010.91 1011.05 1011.18 1011.31 1011.44 1011.58 1011.72 1011.88 1012.06 1012.27
1007.21 1007.40 1007.58 1007.75 1007.91 1008.07 1008.22 1008.37 1008.53 1008.68 1008.82 1008.95 1009.07 1009.17 1009.25 1009.32 1009.39 1009.44 1009.50 1009.57 1009.65 1009.74 1009.85 1009.97 1010.11 1010.25 1010.39 1010.54 1010.68 1010.82 1010.95 1011.08 1011.21 1011.35 1011.51 1011.69 1011.91 1012.15
1007.21 1007.30 1007.39 1007.49 1007.59 1007.71 1007.84 1007.98 1008.14 1008.30 1008.46 1008.62 1008.76 1008.88 1008.98 1009.07 1009.15 1009.22 1009.29 1009.36 1009.45 1009.55 1009.67 1009.80 1009.94 1010.08 1010.23 1010.38 1010.51 1010.64 1010.77 1010.89 1011.02 1011.16 1011.33 1011.52 1011.75 1012.02
1007.31 1007.32 1007.35 1007.39 1007.46 1007.55 1007.67 1007.83 1007.99 1008.18 1008.36 1008.54 1008.71 1008.85 1008.98 1009.08 1009.16 1009.23 1009.30 1009.37 1009.44 1009.53 1009.63 1009.74 1009.86 1009.99 1010.12 1010.24 1010.36 1010.47 1010.58 1010.69 1010.81 1010.94 1011.10 1011.29 1011.52 1011.79
1007.58 1007.55 1007.53 1007.55 1007.60 1007.69 1007.82 1007.98 1008.17 1008.36 1008.56 1008.76 1008.94 1009.09 1009.21 1009.31 1009.38 1009.43 1009.48 1009.51 1009.56 1009.61 1009.67 1009.74 1009.82 1009.91 1010.00 1010.09 1010.17 1010.25 1010.33 1010.41 1010.51 1010.62 1010.76 1010.93 1011.14 1011.38
Thickness
5748 5745 5744 5745 5744 5744 5742 5739 5734 5731 5734 5739 5741 5741 5739 5736 5733 5731 5730 5728 5726 5724 5723 5722 5720 5719 5717 5716 5715 5714 5713 5712 5711 5710 5709 5708 5706 5705
5744 5742 5741 5742 5741 5740 5739 5738 5736 5733 5731 5736 5736 5737 5734 5733 5730 5729 5728 5726 5723 5721 5720 5718 5717 5715 5714 5713 5712 5710 5709 5708 5707 5705 5704 5703 5702 5701
5741 5739 5737 5736 5737 5737 5736 5735 5733 5731 5727 5731 5733 5732 5728 5727 5726 5724 5724 5723 5722 5718 5717 5715 5713 5711 5710 5709 5707 5706 5705 5704 5702 5701 5699 5698 5698 5697
5737 5735 5734 5733 5731 5732 5730 5730 5729 5727 5724 5722 5725 5726 5723 5722 5721 5720 5721 5721 5719 5716 5713 5711 5709 5707 5705 5704 5703 5701 5700 5699 5697 5696 5695 5694 5693 5692
5733 5731 5730 5728 5726 5726 5725 5725 5725 5724 5722 5719 5719 5720 5719 5718 5716 5715 5716 5714 5715 5713 5709 5707 5704 5703 5701 5699 5698 5696 5695 5694 5693 5691 5690 5689 5688 5687
5730 5728 5726 5724 5722 5720 5720 5719 5719 5717 5716 5715 5714 5713 5712 5712 5710 5709 5708 5708 5707 5708 5705 5703 5700 5697 5696 5694 5693 5691 5690 5689 5687 5686 5685 5683 5682 5682
5726 5724 5722 5719 5716 5714 5716 5714 5713 5712 5711 5710 5709 5708 5706 5703 5703 5703 5702 5702 5701 5702 5700 5699 5697 5695 5692 5689 5687 5686 5684 5683 5681 5680 5679 5677 5676 5675
5720 5718 5716 5714 5711 5708 5706 5705 5704 5703 5703 5702 5703 5700 5698 5698 5696 5695 5695 5694 5692 5695 5692 5692 5692 5690 5688 5685 5682 5680 5678 5676 5675 5673 5672 5670 5669 5669
5714 5712 5712 5710 5706 5704 5701 5698 5697 5695 5694 5694 5694 5693 5692 5692 5689 5688 5686 5686 5685 5687 5685 5684 5685 5683 5682 5680 5677 5675 5672 5670 5668 5667 5665 5664 5663 5662
5708 5706 5703 5701 5700 5697 5696 5694 5693 5691 5689 5688 5687 5687 5686 5684 5682 5681 5680 5679 5679 5679 5678 5675 5677 5676 5676 5674 5671 5668 5666 5663 5662 5660 5659 5657 5656 5655
5702 5700 5697 5694 5690 5687 5687 5686 5685 5684 5682 5679 5677 5676 5675 5674 5673 5673 5673 5673 5672 5673 5672 5669 5670 5669 5669 5668 5666 5662 5660 5657 5655 5653 5652 5651 5649 5649
5695 5692 5687 5684 5680 5678 5678 5677 5675 5676 5675 5673 5669 5668 5668 5667 5665 5665 5666 5666 5667 5666 5666 5662 5662 5661 5659 5661 5659 5657 5654 5651 5649 5647 5646 5644 5642 5642
5687 5684 5680 5673 5670 5668 5668 5668 5666 5665 5665 5664 5663 5663 5662 5662 5661 5659 5659 5659 5658 5658 5659 5655 5654 5653 5651 5651 5651 5651 5649 5647 5644 5642 5640 5638 5636 5635
5677 5675 5670 5663 5660 5658 5658 5656 5655 5653 5656 5656 5655 5654 5654 5654 5654 5652 5650 5649 5648 5648 5648 5646 5645 5644 5643 5642 5642 5643 5642 5641 5640 5638 5636 5632 5630 5629
5668 5662 5658 5654 5651 5650 5647 5646 5646 5647 5648 5647 5646 5645 5645 5644 5644 5643 5642 5640 5639 5640 5640 5637 5637 5637 5635 5635 5636 5636 5635 5634 5634 5633 5631 5629 5627 5624
5657 5652 5647 5645 5643 5641 5639 5639 5639 5639 5639 5637 5637 5637 5636 5635 5635 5635 5635 5633 5632 5633 5632 5630 5629 5628 5628 5628 5629 5629 5629 5628 5628 5626 5624 5623 5622 5621
5647 5645 5644 5642 5639 5636 5634 5632 5631 5630 5628 5627 5627 5627 5626 5626 5625 5625 5624 5624 5624 5624 5624 5624 5623 5621 5621 5620 5621 5622 5623 5622 5622 5619 5616 5616 5617 5616
5636 5637 5634 5632 5630 5628 5627 5624 5622 5621 5620 5619 5618 5617 5617 5616 5615 5615 5615 5615 5614 5614 5614 5615 5614 5613 5613 5614 5613 5614 5615 5615 5614 5613 5612 5610 5610 5610
5628 5627 5625 5622 5621 5620 5619 5617 5615 5613 5612 5611 5610 5609 5608 5608 5607 5606 5605 5604 5604 5604 5604 5605 5604 5603 5603 5605 5607 5605 5606 5606 5606 5605 5605 5605 5605 5605
5621 5619 5616 5614 5613 5612 5611 5609 5608 5606 5605 5604 5603 5601 5600 5599 5598 5597 5596 5595 5595 5595 5595 5596 5595 5594 5594 5596 5597 5597 5596 5597 5598 5598 5598 5599 5599 5597
5614 5612 5609 5607 5606 5605 5603 5601 5599 5598 5597 5596 5595 5593 5592 5591 5590 5589 5588 5585 5585 5586 5587 5587 5587 5584 5587 5587 5588 5590 5590 5588 5588 5589 5590 5590 5591 5591
5606 5604 5601 5598 5596 5596 5594 5593 5592 5590 5589 5588 5587 5585 5584 5584 5583 5581 5580 5580 5579 5579 5579 5579 5579 5578 5578 5579 5580 5581 5581 5581 5580 5579 5579 5580 5582 5584
5599 5596 5593 5590 5588 5586 5586 5585 5584 5582 5580 5579 5579 5577 5576 5575 5575 5573 5573 5572 5571 5571 5570 5570 5570 5570 5570 5571 5571 5572 5571 5572 5573 5573 5573 5572 5571 5572